Station LWTV2 - 8635750 - Lewisetta, VA Image indicating link to RSS feed of recent meteorological observations for station LWTV2


Conditions at LWTV2 as of
(8:30 am EDT)
1230 GMT on 04/20/2024:
     

Click on the graph icon in the table below to see a time series plot of the last five days of that observation.

5-day plot - Wind Direction Wind Direction (WDIR): SW ( 230 deg true )
5-day plot - Wind Speed Wind Speed (WSPD): 1.9 kts
5-day plot - Wind Gust Wind Gust (GST): 2.9 kts
5-day plot - Atmospheric Pressure Atmospheric Pressure (PRES):30.01 in
5-day plot - Air Temperature Air Temperature (ATMP): 55.6 °F
5-day plot - Water Temperature Water Temperature (WTMP): 62.8 °F
5-day plot - Wind Speed at 10 Meters Wind Speed at 10 meters (WSPD10M): 1.9 kts
5-day plot - Wind Speed at 20 Meters Wind Speed at 20 meters (WSPD20M): 1.9 kts
5-day plot -  Wind Speed, Wind Gust and Atmospheric Pressure Combined plot of Wind Speed, Gust, and Air Pressure
NOS Water Level Observation Network Water Level
Previous observations
TIME
(EDT)
5-day plot - Wind Direction
WDIR
 
5-day plot - Wind Speed
WSPD
kts
5-day plot - Wind Gust
GST
kts
5-day plot - Wave Height
WVHT
ft
5-day plot - Dominant Wave Period
DPD
sec
5-day plot - Average Wave Period
APD
sec
5-day plot - Mean Wave Direction
MWD
 
5-day plot - Atmospheric Pressure
PRES
in
5-day plot - Pressure Tendency
PTDY
in
5-day plot - Air Temperature
ATMP
°F
5-day plot - Water Temperature
WTMP
°F
5-day plot - Dew Point
DEWP
°F
5-day plot - Salinity
SAL
psu
5-day plot - Visibility
VIS
nmi
5-day plot - Tide (above MLLW)
TIDE
ft
2024-04-20 08:24 amWNW 2.9 4.1----30.01- 55.4 63.5----
2024-04-20 08:18 am NW 4.1 5.1----30.01- 55.2 63.5----
2024-04-20 08:12 am NW 5.1 6.0----30.02- 55.2 63.5----
2024-04-20 08:06 am NW 4.1 5.1----30.02- 55.0 63.5----
2024-04-20 08:00 amWNW 5.1 5.1----30.02+0.04 54.9 63.3----
2024-04-20 07:54 amWNW 4.1 5.1----30.02- 54.9 63.5----
2024-04-20 07:48 amWNW 2.9 2.9----30.01- 54.7 63.5----
2024-04-20 07:42 amNNW 1.9 2.9----30.00- 54.9 63.5----
2024-04-20 07:36 am N 1.0 1.9----30.01- 54.5 63.5----
2024-04-20 07:30 am N 1.9 2.9----30.01- 54.5 63.5----
2024-04-20 07:24 amNNW 2.9 2.9----30.01- 54.3 63.5----
2024-04-20 07:18 amNNW 1.9 2.9----30.01- 54.5 63.5----
2024-04-20 07:12 amWNW 1.0 1.9----30.00- 54.3 63.5----
2024-04-20 07:06 am- 0.0 1.0----30.00- 54.3 63.5----
2024-04-20 07:00 am- 0.0 1.9----30.00+0.00 54.0 63.5----
2024-04-20 06:54 amWNW 1.9 2.9----30.01- 54.0 63.5----
2024-04-20 06:48 amWNW 4.1 4.1----30.01- 54.0 63.5----
2024-04-20 06:42 am W 4.1 5.1----30.01- 54.0 63.5----
2024-04-20 06:36 am W 4.1 5.1----30.01- 54.1 63.5----
2024-04-20 06:30 am W 4.1 5.1----30.00-- 63.7----
2024-04-20 06:24 am SW 1.0 1.9----29.99-- 63.7----
2024-04-20 06:18 am S 1.9 2.9----29.98- 53.6 63.7----
2024-04-20 06:12 amWSW 2.9 4.1----29.99- 53.6 63.7----
2024-04-20 06:06 amWSW 2.9 5.1----30.00- 53.6 63.7----
2024-04-20 06:00 amWSW 5.1 7.0----30.00+0.01- 63.5----
2024-04-20 05:54 amWSW 4.1 5.1----30.00-- 63.7----
2024-04-20 05:48 am SW 4.1 5.1----29.99- 53.8 63.7----
2024-04-20 05:42 am SW 2.9 4.1----29.99- 53.8 63.7----
2024-04-20 05:36 am SW 5.1 5.1----29.99- 53.6 63.7----
2024-04-20 05:30 am SW 5.1 6.0----29.99- 53.6 63.7----
2024-04-20 05:24 am SW 5.1 6.0----29.99- 53.8 63.7----
2024-04-20 05:18 am S 5.1 7.0----29.98- 53.8 63.7----
2024-04-20 05:12 amSSW 4.1 6.0----29.98- 53.6 63.7----
2024-04-20 05:06 amSSW 6.0 7.0----29.99- 54.0 63.7----
2024-04-20 05:00 am S 6.0 7.0----29.98-0.03 53.6 63.7----
2024-04-20 04:54 am S 5.1 6.0----29.98- 53.8 63.7----
2024-04-20 04:48 amSSW 5.1 6.0----29.99- 53.6 63.7----
2024-04-20 04:42 amSSW 4.1 6.0----29.99- 53.6 63.7----
2024-04-20 04:36 am SW 4.1 5.1----29.99- 53.4 63.7----
2024-04-20 04:30 amSSW 1.9 4.1----29.99-- 63.7----
2024-04-20 04:24 am SW 4.1 4.1----29.99-- 63.7----
2024-04-20 04:18 amSSW 4.1 5.1----29.99- 53.2 63.7----
2024-04-20 04:12 am SW 4.1 5.1----29.99- 53.1 63.7----
2024-04-20 04:06 am SW 2.9 5.1----30.00- 53.1 63.5----
2024-04-20 04:00 am-------30.00-0.04- 63.5----
2024-04-20 03:54 am-------30.00-- 63.5----
2024-04-20 03:48 am SW 5.1 6.0----30.00- 52.9 63.5----
2024-04-20 03:42 am SW 5.1 6.0----30.00- 53.1 63.5----
2024-04-20 03:36 am SW 5.1 6.0----30.00- 52.9 63.5----
2024-04-20 03:30 am SW 5.1 7.0----30.00- 53.1 63.3----
2024-04-20 03:24 am SW 4.1 5.1----30.00- 53.2 63.3----
2024-04-20 03:18 amWSW 4.1 5.1----30.00- 53.2 63.3----
2024-04-20 03:12 amWSW 2.9 4.1----30.00- 53.6 63.3----
2024-04-20 03:06 am SW 2.9 4.1----29.99- 53.4 63.3----
2024-04-20 03:00 am SW 1.9 2.9----29.99-0.04 53.1 63.3----
2024-04-20 02:54 am SW 2.9 4.1----30.00- 53.1 63.1----
2024-04-20 02:48 am SW 4.1 5.1----30.00- 53.2 63.1----
2024-04-20 02:42 am W 4.1 5.1----30.00- 53.4 63.0----
2024-04-20 02:36 am W 4.1 5.1----30.00- 53.1 63.0----
2024-04-20 02:30 amWSW 4.1 5.1----30.00- 53.4 63.1----
2024-04-20 02:24 amSSW 2.9 4.1----30.01- 53.2 63.1----
2024-04-20 02:18 amSSW 2.9 5.1----30.01- 53.4 63.1----
2024-04-20 02:12 amSSW 4.1 6.0----30.01- 53.6 63.1----
2024-04-20 02:06 am S 4.1 5.1----30.01- 53.4 63.1----
2024-04-20 02:00 am S 6.0 8.0----30.01-0.03 53.4 63.1----
2024-04-20 01:54 am SW 5.1 6.0----30.02- 53.2 63.1----
2024-04-20 01:48 am SW 4.1 6.0----30.02- 53.1 63.1----
2024-04-20 01:42 am SW 6.0 7.0----30.03- 53.4 63.1----
2024-04-20 01:36 amWSW 4.1 5.1----30.03- 53.2 63.1----
2024-04-20 01:30 am SW 1.9 5.1----30.03- 53.1 63.1----
2024-04-20 01:24 amWSW 5.1 5.1----30.03- 53.4 63.1----
2024-04-20 01:18 amWSW 5.1 6.0----30.03- 53.6 63.1----
2024-04-20 01:12 amWSW 5.1 5.1----30.03- 53.6 63.1----
2024-04-20 01:06 amSSW 2.9 7.0----30.03- 53.8 63.1----
2024-04-20 01:00 amSSE 1.0 1.9----30.03-0.01 53.4 63.1----
2024-04-20 12:54 am S 2.9 4.1----30.04- 53.6 63.1----
2024-04-20 12:48 am S 5.1 6.0----30.04- 53.6 63.3----
2024-04-20 12:42 amSSW 5.1 5.1----30.03- 54.0 63.1----
2024-04-20 12:36 amSSE 4.1 5.1----30.03- 53.8 63.1----
2024-04-20 12:30 am S 5.1 6.0----30.03- 53.8 63.1----
2024-04-20 12:24 am S 6.0 8.0----30.03- 53.8 63.1----
2024-04-20 12:18 am S 6.0 7.0----30.03- 53.8 63.1----
2024-04-20 12:12 amSSW 5.1 7.0----30.03- 54.0 63.1----
2024-04-20 12:06 am S 6.0 7.0----30.03- 54.0 63.1----
2024-04-20 12:00 am S 6.0 7.0----30.03-0.02 54.1 63.1----
2024-04-19 11:54 pm S 5.1 6.0----30.03- 54.1 63.1----
2024-04-19 11:48 pm S 5.1 7.0----30.04- 54.3 63.1----
2024-04-19 11:42 pm S 5.1 8.0----30.03- 54.1 63.1----
2024-04-19 11:36 pm S 8.9 11.1----30.03- 54.5 63.1----
2024-04-19 11:30 pmSSE 7.0 8.0----30.03- 54.5 63.3----
2024-04-19 11:24 pmSSE 7.0 8.9----30.03- 54.9 63.3----
2024-04-19 11:18 pmSSE 6.0 8.0----30.03- 54.9 63.1----
2024-04-19 11:12 pmSSE 7.0 8.0----30.03- 54.7 63.1----
2024-04-19 11:06 pmSSE 7.0 9.9----30.04- 54.9 63.1----
2024-04-19 11:00 pmSSE 6.0 8.0----30.04+0.01 54.5 63.3----
2024-04-19 10:54 pm S 7.0 8.9----30.05- 54.7 63.3----
2024-04-19 10:48 pmSSE 5.1 7.0----30.05- 54.9 63.1----
2024-04-19 10:42 pm S 5.1 8.0----30.05- 55.0 63.3----
2024-04-19 10:36 pmSSE 6.0 8.0----30.05- 54.9 63.3----
2024-04-19 10:30 pm S 6.0 7.0----30.05- 55.0 63.3----
2024-04-19 10:24 pm S 5.1 6.0----30.05- 55.0 63.3----
2024-04-19 10:18 pm S 6.0 7.0----30.04- 55.2 63.3----
2024-04-19 10:12 pm S 7.0 8.0----30.04- 55.2 63.3----
2024-04-19 10:06 pm S 6.0 7.0----30.04- 55.4 63.3----
2024-04-19 10:00 pm S 6.0 7.0----30.04+0.01 55.4 63.3----
2024-04-19 09:54 pmSSE 5.1 6.0----30.04- 55.4 63.3----
2024-04-19 09:48 pmSSE 5.1 7.0----30.04- 55.6 63.3----
2024-04-19 09:42 pmSSE 4.1 6.0----30.05- 55.8 63.3----
2024-04-19 09:36 pm S 4.1 5.1----30.05- 55.8 63.3----
2024-04-19 09:30 pmSSE 2.9 5.1----30.05- 55.8 63.3----
2024-04-19 09:24 pmSSE 2.9 4.1----30.05- 55.8 63.5----
2024-04-19 09:18 pmSSE 4.1 5.1----30.04- 55.8 63.5----
2024-04-19 09:12 pm SE 4.1 4.1----30.05- 55.8 63.5----
2024-04-19 09:06 pmSSE 4.1 5.1----30.04- 55.9 63.5----
2024-04-19 09:00 pm S 4.1 5.1----30.05+0.01 55.8 63.5----
2024-04-19 08:54 pmSSE 4.1 5.1----30.04- 55.8 63.5----
2024-04-19 08:48 pmSSE 5.1 6.0----30.04- 55.9 63.5----
2024-04-19 08:42 pmSSE 6.0 7.0----30.04- 55.9 63.5----
2024-04-19 08:36 pmSSE 4.1 6.0----30.04- 55.8 63.5----
2024-04-19 08:30 pmSSE 5.1 6.0----30.04- 55.8 63.5----
2024-04-19 08:24 pmSSE 4.1 6.0----30.04- 55.9 63.5----
2024-04-19 08:18 pmSSE 4.1 5.1----30.03- 55.9 63.5----
2024-04-19 08:12 pmSSE 5.1 8.0----30.03- 56.1 63.7----
2024-04-19 08:06 pm SE 5.1 7.0----30.03- 55.9 63.7----
2024-04-19 08:00 pmSSE 6.0 8.0----30.03-0.01 56.1 63.7----
2024-04-19 07:54 pmSSE 6.0 7.0----30.03- 56.3 63.7----
2024-04-19 07:48 pmSSE 6.0 8.9----30.02- 56.5 63.7----
2024-04-19 07:42 pmSSE 8.9 11.1----30.03- 56.5 63.7----
2024-04-19 07:36 pm SE 7.0 8.9----30.02- 56.5 63.7----
2024-04-19 07:30 pmSSE 8.0 11.1----30.02- 56.7 63.7----
2024-04-19 07:24 pmSSE 6.0 8.0----30.03- 56.7 63.7----
2024-04-19 07:00 pmSSE 8.0 9.9----30.03-0.02 57.0 63.9----
2024-04-19 06:54 pm S 8.9 11.1----30.03- 57.2 63.7----
2024-04-19 06:48 pm S 9.9 12.0----30.04- 57.4 63.9----
2024-04-19 06:42 pm S 8.9 11.1----30.04- 57.4 63.9----
2024-04-19 06:36 pmSSE 6.0 7.0----30.04- 57.4 63.7----
2024-04-19 06:30 pmSSE 6.0 7.0----30.03- 57.6 63.9----
2024-04-19 06:24 pmSSE 7.0 8.9----30.03- 57.6 63.9----
2024-04-19 06:18 pmSSE 6.0 7.0----30.03- 57.6 63.9----
2024-04-19 06:12 pm SE 6.0 8.0----30.03- 57.6 63.9----
2024-04-19 06:06 pm SE 6.0 6.0----30.03- 57.6 63.9----
2024-04-19 06:00 pm E 5.1 7.0----30.03-0.04 57.0 63.9----
2024-04-19 05:54 pmESE 6.0 8.0----30.04- 57.4 63.9----
2024-04-19 05:48 pm SE 6.0 7.0----30.04- 57.0 63.9----
2024-04-19 05:42 pm SE 6.0 7.0----30.04- 57.2 63.9----
2024-04-19 05:36 pm SE 6.0 7.0----30.04- 57.0 63.9----
2024-04-19 05:30 pmESE 5.1 6.0----30.04- 57.0 63.9----
2024-04-19 05:24 pmESE 5.1 6.0----30.05- 57.0 63.7----
2024-04-19 05:18 pmESE 5.1 6.0----30.05- 56.8 63.3----
2024-04-19 05:12 pm SE 6.0 7.0----30.04- 56.7 63.3----
2024-04-19 05:06 pm SE 7.0 8.0----30.04- 56.7 63.5----
2024-04-19 05:00 pm SE 7.0 8.0----30.04-0.04 56.5 63.9----
2024-04-19 04:54 pmESE 7.0 8.0----30.05- 57.2 63.7----
2024-04-19 04:48 pmESE 6.0 7.0----30.05- 56.7 63.7----
2024-04-19 04:42 pmESE 6.0 8.0----30.05- 56.5 63.7----
2024-04-19 04:36 pmESE 6.0 8.9----30.05- 55.9 63.5----
2024-04-19 04:30 pmESE 6.0 8.9----30.05- 55.9 63.3----
2024-04-19 04:24 pm E 6.0 8.9----30.05- 56.1 63.1----
2024-04-19 04:18 pm E 8.9 11.1----30.04- 55.9 62.8----
2024-04-19 04:12 pm E 8.9 12.0----30.04- 55.9 63.0----
2024-04-19 04:06 pm E 8.0 12.0----30.05- 55.6 63.1----
2024-04-19 04:00 pm E 8.9 11.1----30.05-0.04 55.0 63.3----
2024-04-19 03:54 pm E 7.0 11.1----30.06- 55.2 63.3----
2024-04-19 03:48 pm E 7.0 9.9----30.06- 55.0 63.5----
2024-04-19 03:42 pm E 8.0 9.9----30.06- 55.0 63.9----
2024-04-19 03:36 pm E 6.0 8.9----30.06- 55.2 63.7----
2024-04-19 03:30 pm E 8.0 9.9----30.06- 55.2 63.3----
2024-04-19 03:24 pmESE 5.1 7.0----30.07- 55.9 63.9----
2024-04-19 03:18 pm S 2.9 4.1----30.07- 55.6 63.9----
2024-04-19 03:12 pmSSE 4.1 6.0----30.07- 55.8 63.7----
2024-04-19 03:06 pmSSE 5.1 7.0----30.07- 55.9 63.3----
2024-04-19 03:00 pmSSE 7.0 9.9----30.07-0.04 55.8 63.3----
2024-04-19 02:54 pm S 5.1 6.0----30.08- 55.6 63.0----
2024-04-19 02:48 pmSSE 4.1 7.0----30.08- 55.6 63.0----
2024-04-19 02:42 pm S 4.1 6.0----30.08- 55.2 62.8----
2024-04-19 02:36 pm S 6.0 8.0----30.08- 55.0 62.8----
2024-04-19 02:30 pm S 8.0 8.9----30.08- 55.2 62.8----
2024-04-19 02:24 pmSSE 7.0 8.9----30.08- 55.4 62.8----
2024-04-19 02:18 pmSSE 4.1 5.1----30.09- 55.4 62.8----
2024-04-19 02:12 pm SE 4.1 5.1----30.09- 55.2 63.0----
2024-04-19 02:06 pm SE 2.9 4.1----30.09- 55.0 62.8----
2024-04-19 02:00 pm SE 4.1 5.1----30.09-0.03 55.0 63.0----
2024-04-19 01:54 pmESE 6.0 7.0----30.08- 55.2 63.0----
2024-04-19 01:48 pmESE 6.0 8.9----30.08- 55.2 63.0----
2024-04-19 01:42 pm SE 8.9 11.1----30.08- 55.0 63.0----
2024-04-19 01:36 pmESE 8.9 11.1----30.09- 54.5 63.0----
2024-04-19 01:30 pmESE 9.9 13.0----30.08- 54.9 63.0----
2024-04-19 01:24 pmESE 12.0 13.0----30.07- 55.0 63.0----
2024-04-19 01:18 pmESE 11.1 13.0----30.07- 54.7 63.1----
2024-04-19 01:12 pmESE 11.1 14.0----30.07- 55.0 63.1----
2024-04-19 01:06 pmSSE 6.0 8.9----30.08- 54.3 63.1----
2024-04-19 01:00 pmESE 7.0 8.9----30.09-0.04 54.5 63.1----
2024-04-19 12:54 pmESE 8.0 9.9----30.09- 54.1 63.0----
2024-04-19 12:48 pmESE 8.0 9.9----30.09- 54.1 63.0----
2024-04-19 12:42 pm SE 7.0 9.9----30.10- 54.1 63.0----
2024-04-19 12:36 pm SE 6.0 8.9----30.10- 54.0 63.0----
2024-04-19 12:30 pm SE 7.0 8.9----30.10- 53.6 63.0----
2024-04-19 12:24 pm SE 8.0 11.1----30.10- 54.0 62.8----
2024-04-19 12:18 pmESE 8.0 9.9----30.11- 53.8 62.8----
2024-04-19 12:12 pmESE 8.9 12.0----30.11- 53.1 62.6----
2024-04-19 12:06 pmESE 8.0 9.9----30.11- 53.1 62.6----
2024-04-19 12:00 pmESE 8.0 9.9----30.11-0.03 53.1 62.6----
2024-04-19 11:54 amESE 8.0 9.9----30.11- 52.7 62.6----
2024-04-19 11:48 amESE 8.9 11.1----30.11- 52.7 62.6----
2024-04-19 11:42 amESE 8.9 11.1----30.11- 52.5 62.6----
2024-04-19 11:36 amESE 9.9 12.0----30.11- 52.2 62.4----
2024-04-19 11:30 amESE 11.1 13.0----30.11- 52.5 62.2----
2024-04-19 11:24 am SE 11.1 13.0----30.11- 52.2 62.1----
2024-04-19 11:18 am SE 9.9 12.0----30.12- 52.3 62.1----
2024-04-19 11:12 amESE 9.9 12.0----30.11- 52.9 62.1----
2024-04-19 11:06 amESE 8.9 11.1----30.11- 52.3 62.1----
2024-04-19 11:00 amESE 9.9 12.0----30.12+0.00 52.5 62.1----
2024-04-19 10:54 amESE 9.9 12.0----30.13- 52.5 62.1----
2024-04-19 10:48 amESE 8.0 11.1----30.13- 52.0 62.1----
2024-04-19 10:42 amESE 9.9 12.0----30.13- 52.5 62.1----
2024-04-19 10:36 amESE 8.0 11.1----30.12- 52.0 62.1----
2024-04-19 10:30 amESE 8.9 13.0----30.12- 52.5 62.1----
2024-04-19 10:24 am E 6.0 8.9----30.13- 51.8 62.1----
2024-04-19 10:18 amESE 6.0 8.9----30.13- 51.8 62.1----
2024-04-19 10:12 amESE 8.0 11.1----30.13- 52.0 62.1----
2024-04-19 10:06 amESE 7.0 11.1----30.13- 52.0 62.1----
2024-04-19 10:00 am SE 7.0 8.9----30.13+0.02 52.3 62.1----
2024-04-19 09:54 am SE 5.1 8.0----30.13- 51.8 62.1----
2024-04-19 09:48 am SE 8.0 8.9----30.13- 52.0 62.1----
2024-04-19 09:42 amESE 6.0 8.0----30.13- 51.6 62.1----
2024-04-19 09:36 am E 6.0 8.9----30.14- 51.6 62.1----
2024-04-19 09:30 am E 6.0 8.0----30.14- 51.8 62.1----
2024-04-19 09:24 am E 7.0 8.9----30.14- 51.4 62.1----
2024-04-19 09:18 amENE 6.0 8.0----30.14- 51.3 62.1----
2024-04-19 09:12 am E 6.0 8.0----30.14- 51.4 62.1----
2024-04-19 09:06 am E 7.0 11.1----30.14- 51.4 62.1----
2024-04-19 09:00 amENE 6.0 8.0----30.14+0.04 51.6 62.1----
2024-04-19 08:54 amENE 6.0 9.9----30.14- 51.4 62.1----